DW0156 Weather Reports


time (UTC)temp
C
wind
direction
speed
KPH
gust
KPH
rain 1hr
cm
rain 24hr
cm
rain mn
cm
humidity
%
barometer
mb
20260507002804 14 263 6.4 14.5 0.00 0.25 0.00 60 1030.2
20260507002311 14 263 4.8 19.3 0.00 0.25 0.00 61 1030.2
20260507001751 13 263 3.2 19.3 0.00 0.25 0.00 63 1030.2
20260507001246 13 263 6.4 19.3 0.00 0.25 0.00 64 1030.2
20260507000750 13 263 6.4 19.3 0.00 0.25 0.00 65 1030.2
20260506235750 13 263 6.4 14.5 0.00 0.25 0.00 68 1030.2
20260506235255 13 263 4.8 14.5 0.00 0.25 0.00 69 1030.2
20260506233443 12 263 0.0 8.0 0.00 0.25 0.00 79 1030.1
20260506232936 11 263 0.0 0.0 0.00 0.25 0.00 81 1030.1
20260506232432 11 263 0.0 0.0 0.00 0.25 0.00 82 1030.1
20260506231914 10 263 0.0 0.0 0.00 0.25 0.00 83 1030.1
20260506230744 10 263 0.0 0.0 0.00 0.25 0.00 83 1030.1
20260506230250 10 263 0.0 0.0 0.00 0.25 0.00 84 1030.1
20260506225737 10 263 0.0 0.0 0.00 0.25 0.00 84 1029.7
20260506225236 10 263 0.0 0.0 0.00 0.25 0.00 83 1029.7
20260506224718 10 263 0.0 0.0 0.00 0.25 0.00 83 1029.7
20260506224213 10 263 0.0 0.0 0.00 0.25 0.00 84 1029.4
20260506223715 10 263 0.0 0.0 0.00 0.25 0.00 84 1029.4
20260506223207 9 263 0.0 0.0 0.00 0.25 0.00 84 1029.4
20260506222650 9 263 0.0 0.0 0.00 0.25 0.00 85 1029.2
20260506222147 9 263 0.0 0.0 0.00 0.25 0.00 84 1029.2
20260506221036 8 263 0.0 0.0 0.00 0.25 0.00 83 1029.1
20260506220539 8 263 0.0 1.6 0.00 0.25 0.00 83 1029.1
20260506220039 8 263 0.0 0.0 0.00 0.25 0.00 82 1029.1
20260506215545 8 263 0.0 0.0 0.00 0.25 0.00 82 1028.9
20260506215045 8 263 0.0 0.0 0.00 0.28 0.00 81 1028.9
20260506214537 8 263 0.0 0.0 0.00 0.28 0.00 80 1028.9
20260506213408 9 263 0.0 0.0 0.00 0.28 0.00 79 1028.7
20260506212849 9 263 0.0 0.0 0.00 0.28 0.00 78 1028.6
20260506212340 9 263 0.0 0.0 0.00 0.30 0.00 77 1028.6
20260506211232 9 263 0.0 0.0 0.00 0.30 0.00 76 1028.4
20260506210731 9 263 0.0 1.6 0.00 0.30 0.00 76 1028.4
20260506210224 10 263 0.0 1.6 0.00 0.30 0.00 75 1028.4
20260506205710 10 263 0.0 0.0 0.00 0.30 0.00 74 1028.2
20260506205154 10 263 0.0 0.0 0.00 0.30 0.00 74 1028.2
20260506204647 10 263 0.0 0.0 0.00 0.30 0.00 73 1028.2
20260506204141 10 263 0.0 0.0 0.00 0.30 0.00 73 1028.0
20260506203632 10 263 0.0 0.0 0.00 0.30 0.00 73 1028.0
20260506203121 10 263 0.0 0.0 0.00 0.30 0.00 74 1028.0
20260506201959 10 263 0.0 0.0 0.00 0.30 0.00 73 1028.0
20260506201505 11 263 0.0 0.0 0.00 0.30 0.00 73 1028.0
20260506201008 11 263 0.0 3.2 0.00 0.30 0.00 73 1028.0
20260506200518 11 263 1.6 4.8 0.00 0.30 0.00 73 1028.0
20260506200025 11 263 1.6 4.8 0.00 0.30 0.00 73 1028.0
20260506195511 11 263 1.6 6.4 0.00 0.30 0.00 73 1027.9
20260506195016 11 263 1.6 6.4 0.00 0.30 0.00 73 1027.9
20260506194504 11 263 3.2 9.7 0.00 0.30 0.00 73 1027.9
20260506194005 11 263 4.8 9.7 0.00 0.30 0.00 73 1027.6
20260506193510 11 263 4.8 17.7 0.00 0.30 0.00 72 1027.6
20260506193004 11 263 6.4 17.7 0.00 0.30 0.00 72 1027.6
20260506192510 11 263 8.0 17.7 0.00 0.30 0.00 72 1027.6
20260506192007 11 263 4.8 17.7 0.00 0.30 0.00 72 1027.6
20260506191513 11 263 3.2 8.0 0.00 0.30 0.00 72 1027.6
20260506190336 11 263 1.6 4.8 0.00 0.30 0.00 71 1027.4
20260506185201 11 263 1.6 8.0 0.00 0.30 0.00 70 1027.0
20260506183352 11 263 6.4 19.3 0.00 0.30 0.00 69 1027.0
20260506182837 12 263 6.4 19.3 0.00 0.30 0.00 68 1027.0
20260506182317 12 263 6.4 19.3 0.00 0.30 0.00 68 1027.0
20260506181812 12 263 6.4 19.3 0.00 0.30 0.00 68 1027.0
20260506181252 12 263 4.8 12.9 0.00 0.30 0.00 68 1027.0
20260506180141 11 263 3.2 9.7 0.00 0.30 0.00 67 1027.0
20260506175627 11 263 3.2 9.7 0.00 0.30 0.00 67 1027.0
20260506175120 11 263 3.2 9.7 0.00 0.30 0.00 68 1027.0
20260506174627 11 263 3.2 6.4 0.00 0.30 0.00 68 1027.0
20260506174111 11 263 3.2 8.0 0.00 0.30 0.00 68 1027.0
20260506173619 11 263 3.2 8.0 0.00 0.30 0.00 69 1027.0
20260506173108 11 263 3.2 9.7 0.00 0.30 0.00 69 1027.0
20260506172615 11 263 3.2 9.7 0.00 0.30 0.00 70 1027.0
20260506172123 11 263 3.2 9.7 0.00 0.30 0.00 71 1027.0
20260506170945 11 263 0.0 1.6 0.00 0.30 0.00 71 1027.0
20260506170428 11 263 0.0 0.0 0.00 0.30 0.00 71 1027.0
20260506165933 11 263 0.0 0.0 0.00 0.30 0.00 71 1027.0
20260506165421 11 263 0.0 0.0 0.00 0.30 0.00 71 1027.1
20260506164921 11 263 0.0 0.0 0.00 0.30 0.00 70 1027.1
20260506164427 11 263 0.0 0.0 0.00 0.30 0.00 70 1027.1
20260506163920 11 263 0.0 0.0 0.00 0.30 0.00 70 1027.0
20260506163419 11 263 0.0 0.0 0.00 0.30 0.00 69 1027.0
20260506162909 11 263 0.0 0.0 0.00 0.30 0.00 69 1027.0
20260506161730 12 263 0.0 0.0 0.00 0.30 0.00 67 1027.0
20260506161236 12 263 0.0 0.0 0.00 0.30 0.00 67 1027.0
20260506160735 12 263 1.6 8.0 0.00 0.30 0.00 67 1027.0
20260506154445 12 263 4.8 16.1 0.00 0.30 0.00 64 1026.9
20260506153927 12 263 4.8 16.1 0.00 0.30 0.00 64 1026.9
20260506153427 12 263 6.4 17.7 0.00 0.30 0.00 64 1026.9
20260506152913 12 263 6.4 17.7 0.00 0.30 0.00 63 1026.9
20260506152408 12 263 8.0 25.7 0.00 0.30 0.00 63 1026.9
20260506151912 12 263 8.0 25.7 0.00 0.30 0.00 62 1026.9
20260506151414 12 263 11.3 25.7 0.00 0.30 0.00 62 1026.9
20260506150250 12 263 4.8 19.3 0.00 0.30 0.00 60 1026.9
20260506145731 12 263 3.2 9.7 0.00 0.30 0.00 60 1026.8
20260506145224 12 263 3.2 8.0 0.00 0.30 0.00 60 1026.8
20260506144717 12 263 4.8 11.3 0.00 0.30 0.00 60 1026.8
20260506144156 12 263 4.8 11.3 0.00 0.30 0.00 60 1026.8
20260506143649 12 263 4.8 17.7 0.00 0.30 0.00 59 1026.8
20260506143145 12 263 4.8 17.7 0.00 0.30 0.00 60 1026.8
20260506142628 12 263 8.0 24.1 0.00 0.30 0.30 59 1026.8
20260506141502 12 263 9.7 24.1 0.00 0.30 0.30 60 1026.8
20260506141001 12 263 8.0 24.1 0.00 0.30 0.30 60 1026.9
20260506140441 12 263 4.8 20.9 0.00 0.30 0.30 61 1026.9
20260506135946 12 263 6.4 14.5 0.00 0.30 0.30 62 1026.9
20260506135455 12 263 8.0 22.5 0.00 0.30 0.30 62 1026.6
20260506135000 12 263 9.7 22.5 0.00 0.30 0.30 62 1026.6
20260506134453 12 263 11.3 22.5 0.00 0.30 0.30 63 1026.6
20260506133948 12 263 9.7 22.5 0.00 0.30 0.30 64 1026.5
20260506133431 12 263 8.0 19.3 0.00 0.30 0.30 65 1026.5
20260506132911 12 263 6.4 19.3 0.00 0.30 0.30 65 1026.4
20260506131738 12 263 4.8 16.1 0.00 0.30 0.30 67 1026.4
20260506131218 12 263 6.4 16.1 0.00 0.30 0.30 67 1026.4
20260506130707 12 263 6.4 17.7 0.00 0.30 0.30 68 1026.4
20260506130147 12 263 6.4 17.7 0.00 0.30 0.30 68 1026.4
20260506125026 12 263 6.4 19.3 0.00 0.30 0.30 70 1026.3
20260506124528 12 263 6.4 19.3 0.00 0.30 0.30 70 1026.3
20260506124011 12 263 4.8 17.7 0.00 0.30 0.30 70 1026.1
20260506123506 12 263 4.8 17.7 0.00 0.30 0.30 70 1026.1
20260506122952 12 263 4.8 17.7 0.00 0.30 0.30 70 1026.1
20260506122454 13 263 4.8 17.7 0.00 0.30 0.30 70 1026.0
20260506121333 13 263 4.8 16.1 0.00 0.30 0.30 70 1025.9
20260506120815 13 263 6.4 17.7 0.00 0.30 0.30 70 1025.9
20260506120313 13 263 6.4 17.7 0.00 0.30 0.30 71 1025.9
20260506115753 13 263 6.4 17.7 0.00 0.30 0.30 73 1025.6
20260506115252 13 263 6.4 17.7 0.00 0.30 0.30 73 1025.6
20260506114251 13 263 6.4 16.1 0.00 0.30 0.30 75 1025.5
20260506113740 13 263 4.8 16.1 0.00 0.30 0.30 76 1025.5
20260506113231 13 263 4.8 16.1 0.00 0.30 0.30 77 1025.5
20260506112740 13 263 6.4 16.1 0.00 0.30 0.30 78 1025.4
20260506112224 13 263 6.4 16.1 0.00 0.30 0.30 78 1025.4
20260506111053 13 263 4.8 16.1 0.00 0.30 0.30 79 1025.4
20260506110541 13 263 6.4 16.1 0.00 0.30 0.30 79 1025.4
20260506110022 13 263 6.4 16.1 0.00 0.30 0.30 79 1025.4
20260506105525 13 263 6.4 12.9 0.00 0.30 0.30 79 1025.3
20260506105014 13 263 6.4 12.9 0.00 0.30 0.30 79 1025.3
20260506104503 13 263 4.8 20.9 0.00 0.30 0.30 79 1025.3
20260506104006 13 263 6.4 20.9 0.00 0.30 0.30 79 1025.0
20260506103459 13 263 6.4 20.9 0.00 0.30 0.30 80 1025.0
20260506102958 13 263 6.4 20.9 0.00 0.30 0.30 80 1025.0
20260506102452 13 263 6.4 16.1 0.00 0.30 0.30 80 1024.9
20260506095426 13 263 6.4 17.7 0.00 0.30 0.30 82 1024.4
20260506094926 13 263 6.4 17.7 0.00 0.30 0.30 82 1024.4
20260506094417 13 263 6.4 29.0 0.00 0.30 0.30 83 1024.4
20260506093917 13 263 8.0 29.0 0.00 0.30 0.30 83 1024.4
20260506092744 14 263 9.7 29.0 0.00 0.30 0.30 83 1024.2
20260506091606 14 263 8.0 24.1 0.00 0.30 0.30 83 1024.2
20260506090426 15 263 9.7 24.1 0.00 0.30 0.30 82 1023.8
20260506085935 15 263 9.7 24.1 0.00 0.30 0.30 82 1023.8
20260506085437 15 263 8.0 25.7 0.00 0.30 0.30 81 1023.4
20260506084923 15 263 9.7 25.7 0.00 0.30 0.30 81 1023.4
20260506084428 15 263 11.3 25.7 0.00 0.30 0.30 80 1023.4
20260506083914 15 263 12.9 25.7 0.00 0.30 0.30 79 1023.2
20260506083354 15 263 9.7 24.1 0.00 0.30 0.30 79 1023.2
20260506082901 16 263 8.0 22.5 0.00 0.30 0.30 78 1022.9
20260506082359 16 263 6.4 22.5 0.00 0.30 0.30 77 1022.9
20260506081845 16 263 6.4 24.1 0.00 0.30 0.30 76 1022.9
20260506081350 16 263 9.7 24.1 0.00 0.30 0.30 76 1022.7
20260506080840 16 263 9.7 24.1 0.00 0.30 0.30 76 1022.7
20260506080331 16 263 8.0 22.5 0.00 0.30 0.30 75 1022.7
20260506073129 17 263 8.0 22.5 0.00 0.30 0.30 70 1022.4
20260506072617 17 263 6.4 22.5 0.00 0.30 0.30 69 1022.3
20260506072112 17 263 6.4 22.5 0.00 0.30 0.30 68 1022.3
20260506070942 17 263 8.0 22.5 0.00 0.30 0.30 67 1022.2
20260506070441 17 263 8.0 17.7 0.00 0.30 0.30 66 1022.2
20260506062052 17 263 8.0 20.9 0.00 0.30 0.30 69 1022.2
20260506061543 17 263 8.0 20.9 0.00 0.30 0.30 70 1022.2
20260506061046 17 263 9.7 20.9 0.00 0.30 0.30 70 1022.0
20260506051345 16 263 6.4 19.3 0.00 0.30 0.30 81 1021.8
20260506050845 16 263 8.0 19.3 0.00 0.30 0.30 81 1021.8
20260506050340 16 263 9.7 24.1 0.00 0.30 0.30 82 1021.8
20260506044707 16 263 6.4 24.1 0.00 0.30 0.30 84 1021.8
20260506044210 16 263 4.8 16.1 0.00 0.30 0.30 86 1021.8
20260506043043 16 263 4.8 22.5 0.08 0.30 0.30 86 1021.8
20260506042537 16 263 6.4 22.5 0.15 0.30 0.30 86 1022.0
20260506042031 16 263 9.7 22.5 0.20 0.30 0.30 85 1022.0
20260506040925 16 263 8.0 20.9 0.00 0.20 0.20 85 1021.7
20260506040405 16 263 6.4 20.9 0.00 0.20 0.20 86 1021.7
20260506035857 16 263 6.4 20.9 0.00 0.20 0.20 86 1021.8
20260506035357 16 263 6.4 14.5 0.00 0.20 0.20 87 1021.8
20260506034847 16 263 4.8 17.7 0.00 0.20 0.20 87 1021.8
20260506034341 16 263 6.4 17.7 0.00 0.20 0.20 87 1022.1
20260506033850 15 263 8.0 24.1 0.00 0.20 0.20 87 1022.1
20260506033359 15 263 6.4 24.1 0.00 0.20 0.20 88 1022.1
20260506032851 15 263 8.0 24.1 0.00 0.20 0.20 88 1022.2
20260506032351 15 263 8.0 24.1 0.08 0.20 0.20 87 1022.2
20260506031858 15 263 8.0 20.9 0.13 0.20 0.20 86 1022.2
20260506031338 16 263 6.4 20.9 0.36 0.20 0.20 85 1022.3
20260506030843 16 263 6.4 17.7 0.10 0.18 0.18 85 1022.3
20260506030345 16 263 8.0 19.3 0.20 0.18 0.18 84 1022.3
20260506025844 16 263 6.4 19.3 0.53 0.15 0.18 82 1022.3
20260506025335 17 263 6.4 19.3 0.36 0.08 0.10 80 1022.3
20260506024819 17 263 6.4 19.3 0.00 0.05 0.08 78 1022.3
20260506024327 17 263 4.8 16.1 0.00 0.05 0.05 75 1022.5
20260506023811 17 263 3.2 12.9 0.00 0.05 0.05 75 1022.5
20260506023313 17 263 3.2 12.9 0.00 0.05 0.05 75 1022.5
20260506022753 17 263 3.2 17.7 0.00 0.05 0.05 75 1022.8
20260506022254 17 263 4.8 17.7 0.00 0.05 0.05 76 1022.8
20260506021751 17 263 6.4 17.7 0.00 0.05 0.05 75 1022.8
20260506020622 17 263 6.4 17.7 0.00 0.05 0.05 76 1023.0
20260506020123 17 263 6.4 17.7 0.00 0.05 0.05 75 1023.0
20260506015631 17 263 6.4 16.1 0.00 0.05 0.05 76 1023.1
20260506015136 17 263 6.4 19.3 0.00 0.05 0.05 77 1023.1
20260506014617 17 263 6.4 19.3 0.00 0.05 0.05 76 1023.1
20260506014118 17 263 6.4 19.3 0.00 0.05 0.05 76 1023.2
20260506013626 17 263 6.4 19.3 0.00 0.05 0.05 77 1023.2
20260506013131 17 263 4.8 19.3 0.00 0.05 0.05 77 1023.2
20260506012637 17 263 6.4 19.3 0.00 0.05 0.05 77 1023.2
20260506012131 17 263 6.4 19.3 0.00 0.05 0.05 77 1023.2
20260506011625 17 263 4.8 19.3 0.00 0.05 0.05 78 1023.2
20260506011106 17 263 6.4 19.3 0.00 0.05 0.05 78 1023.2
20260506010549 17 263 8.0 19.3 0.00 0.05 0.05 77 1023.2
20260506010036 17 263 6.4 14.5 0.00 0.05 0.05 78 1023.2
20260506005517 17 263 3.2 14.5 0.00 0.05 0.05 79 1023.2
20260506003802 16 263 4.8 12.9 0.00 0.05 0.05 83 1023.3
20260506003245 16 263 6.4 17.7 0.00 0.05 0.05 85 1023.3